IRIDIUM 178

Last updated on Sun Jun 21 2026 00:03:14 GMT+0000 (Coordinated Universal Time)

1 56729U 23068V 26171.01576917 .00000720 00000+0 91293-4 0 9997 2 56729 86.6536 24.1779 0002608 85.3465 274.8055 14.80237780166781
UTC large
Height (km)
Speed (km/s)
/
Latitude / Longitude
Inclination (degrees)
Orbital Period (minutes)
Azimuth
Elevation
Range (km)
Doppler Factor

Next 0 passes for location: London (51.5072 / 0.1276)

No passes found over London.
IRIDIUM 178